Wind_Speed
18 18 19 19 23 23 22 21 23 24 24 27 29 39 44 46 50 58 76 81 86 94 98 99 101 103 104 102 103 103 97 89 89 90 91 97 99 88 80 82 75 74 76 69 64
19 20 22 21 27 29 28 29 27 28 28 26 27 27 31 39 40 45 43 47 51 60 64 77 85 91 97 103 104 102 100 98 101 100 97 104 103 96 87 82 84 84 81 82 71
21 21 23 25 29 34 37 36 35 32 30 30 28 27 25 30 32 43 43 46 45 47 49 54 62 72 79 91 98 103 97 101 100 107 106 108 105 97 90 83 82 86 89 88 81
26 25 29 31 32 40 41 39 38 40 39 36 33 35 32 39 35 38 36 44 49 51 54 53 55 56 62 70 83 86 92 101 97 104 106 102 103 98 96 89 95 96 94 92 87
36 35 34 36 41 46 46 42 44 45 43 41 39 33 32 41 41 42 46 42 39 42 47 54 57 60 59 60 63 68 76 83 93 96 102 104 98 98 96 94 96 98 100 93 92
41 42 42 44 47 48 49 49 51 52 47 45 43 37 34 43 38 44 50 51 46 47 49 47 50 53 57 60 63 62 66 70 77 85 94 97 95 99 95 95 96 96 98 98 95
41 39 44 45 46 51 54 53 54 55 53 48 44 46 36 53 41 48 53 58 54 55 55 54 50 51 58 54 58 64 60 62 64 73 81 89 88 83 94 100 98 98 99 97 93
49 49 50 52 55 57 61 62 62 62 62 57 53 54 41 56 50 53 49 57 61 61 62 62 59 57 53 56 50 53 60 57 62 69 72 85 79 85 90 92 99 99 96 95 96
54 55 57 59 61 64 67 69 69 70 67 65 63 65 55 59 58 57 53 62 66 67 66 65 68 66 61 52 49 49 49 54 63 64 69 77 76 83 90 89 87 91 94 99 97
57 59 61 65 68 70 72 75 75 75 74 73 70 67 67 66 62 60 62 61 64 68 70 67 66 68 58 58 56 56 49 48 50 64 64 66 68 79 87 87 83 78 81 91 99
64 64 66 69 71 72 74 78 80 77 76 74 72 73 73 72 66 63 67 67 68 63 69 70 70 59 63 68 65 58 49 48 49 55 61 60 63 74 83 84 82 77 75 77 85
71 71 74 76 78 80 80 80 83 83 75 76 76 74 74 81 74 69 74 77 73 69 68 67 61 63 69 65 64 57 50 48 49 49 55 57 60 64 78 82 81 77 74 73 74
80 81 81 83 85 88 90 89 89 92 86 71 77 79 84 90 81 81 76 77 80 79 73 69 61 68 64 64 62 59 55 49 51 48 50 56 58 55 69 77 79 76 70 70 68
89 88 90 89 93 94 98 99 101 101 97 78 83 85 89 92 86 90 85 80 82 79 82 75 67 66 61 58 61 60 58 53 55 48 47 51 52 53 61 74 76 76 70 69 70
93 95 96 97 96 105 104 107 110 110 107 92 95 97 96 91 89 84 86 80 76 82 87 75 74 67 64 59 61 58 58 55 54 48 44 46 50 49 53 68 73 75 74 70 70
98 101 103 105 109 112 118 118 116 110 101 100 100 103 96 84 81 80 80 78 78 83 76 78 75 66 63 64 63 62 61 58 54 50 42 45 47 45 45 62 71 76 76 72 70
104 109 112 113 122 124 122 121 113 107 104 99 95 97 90 75 81 74 66 73 72 73 66 73 72 74 70 65 66 64 59 55 53 49 44 45 46 40 49 47 69 76 78 69 68
112 119 121 125 132 130 118 111 107 103 92 90 86 76 71 64 58 60 49 57 54 57 66 68 67 67 70 66 65 64 62 58 56 51 53 52 40 47 55 46 59 76 70 68 69
119 126 133 134 133 119 109 98 90 82 76 70 63 60 52 46 43 48 50 49 53 57 62 61 61 66 67 64 60 60 63 61 60 53 48 44 40 50 49 47 46 51 71 71 70
128 133 137 135 119 106 96 84 73 65 60 53 48 45 42 40 39 44 48 45 44 45 51 55 62 64 62 61 59 56 58 56 55 48 42 41 40 46 41 41 44 45 49 75 73
136 140 134 123 108 90 80 70 61 54 46 40 38 39 36 35 39 43 39 44 43 43 40 47 53 56 62 59 56 60 56 54 53 44 38 39 36 36 35 37 42 42 43 45 58
137 132 121 108 92 83 69 58 49 45 37 31 31 33 29 29 35 43 44 47 43 45 39 40 43 54 51 52 55 58 55 52 49 44 41 39 40 41 36 34 40 42 44 47 47
127 122 103 89 79 68 57 48 39 35 32 25 26 27 25 30 42 52 47 45 42 50 54 36 33 44 47 49 50 48 43 42 42 38 35 37 38 40 34 34 31 39 33 37 43
114 102 88 76 66 56 47 39 30 28 24 22 21 23 25 31 43 52 51 49 53 50 51 57 44 39 33 33 35 41 40 37 33 29 28 36 41 42 41 40 53 49 47 42 48
100 87 74 64 55 49 40 33 25 21 20 19 18 20 28 35 45 58 58 64 68 61 54 45 41 33 31 32 33 30 28 31 30 30 28 37 39 44 40 45 49 52 54 50 51
86 75 64 56 49 41 35 27 20 15 16 14 15 24 32 37 60 66 58 62 60 56 45 47 36 34 35 29 26 19 16 26 33 29 32 37 44 43 41 46 48 52 58 51 42
80 66 58 50 41 35 28 22 17 13 12 11 18 32 40 53 62 61 60 64 58 48 47 50 38 41 41 29 28 26 30 27 23 26 25 31 35 46 46 47 47 43 48 44 48
Wind_Direction
355 359 3 0 359 358 350 334 320 307 293 279 263 252 246 241 243 246 247 248 251 251 252 251 252 252 251 252 253 251 249 248 250 248 249 251 250 251 250 251 253 254 256 251 249
333 344 350 347 346 341 342 340 333 325 310 295 285 286 280 267 263 261 255 252 251 250 249 248 246 247 250 250 249 250 250 249 248 248 249 252 252 252 252 253 256 258 256 251 251
341 329 322 325 331 340 338 336 330 324 321 309 298 291 298 290 283 271 263 268 267 269 263 258 253 250 245 246 248 248 246 245 247 247 247 248 251 253 253 251 252 248 247 252 255
328 321 319 316 321 327 329 325 325 324 321 317 310 298 296 288 288 293 283 274 271 269 269 268 268 265 256 251 247 247 246 242 243 243 246 248 249 249 251 248 244 248 249 252 252
333 318 316 322 325 325 326 322 316 319 316 320 321 310 293 285 285 279 285 286 279 271 273 270 269 269 266 264 261 253 246 243 242 241 244 244 246 247 247 245 244 247 248 248 252
325 318 317 316 319 315 314 313 315 312 310 306 314 314 306 279 286 283 279 278 283 274 274 276 274 273 272 270 266 259 254 246 242 242 243 243 240 242 244 243 244 244 246 246 248
319 320 318 310 314 315 310 308 310 311 307 303 292 304 300 274 305 284 276 278 275 269 270 273 274 275 269 271 267 264 261 254 248 246 244 243 241 243 240 239 241 242 244 245 245
316 315 311 308 309 310 310 309 309 309 307 305 301 296 288 276 297 273 275 274 273 273 268 267 270 276 279 271 272 268 264 261 253 247 245 244 239 239 242 240 240 240 241 244 244
314 311 309 308 307 306 305 304 304 305 302 302 298 296 290 276 281 282 272 267 271 271 271 270 270 269 269 278 285 272 267 261 252 251 247 246 238 236 239 241 241 240 238 239 242
315 313 307 303 303 303 303 302 302 302 300 300 297 296 291 283 278 274 266 265 262 264 266 268 267 267 271 273 269 270 270 269 264 254 251 248 241 236 239 238 240 241 240 239 241
317 317 312 309 305 305 302 300 303 300 298 294 294 294 290 282 276 272 268 270 271 272 260 263 264 268 265 262 265 268 278 275 271 259 253 248 244 236 237 239 238 239 241 241 242
318 315 314 310 311 309 304 300 300 298 297 295 291 292 283 279 284 275 268 268 267 263 260 263 263 257 259 260 265 267 271 276 268 263 255 249 244 239 236 237 237 237 240 242 243
318 314 313 311 309 305 303 304 300 298 298 292 290 286 280 283 281 279 269 266 266 263 264 266 256 255 258 260 264 261 265 271 269 266 257 252 246 247 238 236 237 237 239 243 242
317 315 314 312 309 307 305 304 300 298 296 294 285 284 281 277 283 275 272 265 262 263 260 260 255 254 256 259 262 258 260 267 266 267 265 255 248 246 239 233 236 235 236 240 241
315 314 314 312 310 305 304 301 298 297 296 294 284 283 283 280 277 273 269 263 258 257 258 257 250 249 252 254 253 255 259 266 264 269 272 264 251 243 241 236 235 238 234 236 242
316 314 313 312 307 307 306 304 305 304 304 295 291 290 285 283 274 265 264 256 252 254 255 250 250 253 251 251 252 252 258 260 263 269 272 267 251 242 244 235 234 237 236 235 241
315 314 312 310 309 309 309 306 305 303 296 296 288 286 283 275 275 266 255 253 249 247 246 246 248 246 246 247 248 252 255 259 267 267 263 261 249 237 241 236 232 237 240 238 242
316 315 312 311 311 312 310 306 303 298 295 292 288 283 280 275 265 258 245 241 238 236 237 242 246 246 247 247 246 249 253 260 260 257 251 254 252 239 238 235 234 233 237 241 242
316 314 314 315 314 312 311 305 302 295 294 291 284 280 272 266 252 239 235 230 232 230 230 232 235 239 241 245 245 246 251 253 254 255 255 259 248 245 239 235 242 241 234 237 239
317 314 316 316 315 312 309 306 301 298 294 289 282 275 268 250 236 227 227 215 217 218 223 226 225 228 231 233 235 243 246 253 255 256 254 253 242 242 241 244 243 244 239 235 236
317 316 317 317 315 313 310 307 302 298 291 287 276 265 256 242 230 223 222 208 205 203 214 222 217 219 227 233 235 240 245 251 251 253 246 240 240 247 242 238 247 244 239 239 240
319 318 317 317 314 313 311 308 303 296 291 278 264 256 242 231 216 209 207 208 200 195 197 216 225 225 228 230 232 237 243 246 247 242 233 228 232 240 237 236 244 249 248 243 242
320 318 319 316 314 313 311 307 302 294 290 274 254 245 235 212 197 195 198 198 186 181 209 221 221 223 220 226 236 243 241 239 235 238 234 230 232 238 238 243 246 237 245 249 251
322 320 319 317 315 314 312 307 301 292 280 263 253 238 219 206 198 188 186 180 172 196 206 217 229 221 204 211 214 220 222 224 226 225 223 231 231 237 234 212 215 238 247 253 245
323 322 319 317 316 315 311 307 301 285 270 256 244 221 200 191 192 186 172 175 180 189 204 210 204 191 200 208 216 215 220 220 211 215 208 233 236 225 229 227 236 241 250 256 259
325 322 320 317 316 313 310 305 297 280 258 245 216 197 186 179 182 187 188 182 187 190 194 183 183 190 202 216 225 214 229 227 219 211 224 238 242 239 236 237 237 238 245 252 263
326 322 320 317 314 310 305 301 293 267 252 225 193 181 174 178 181 185 180 183 188 179 183 182 187 193 204 210 203 206 215 218 214 211 214 231 235 237 234 236 241 244 252 261 262
Height
10835 10833 10831 10829 10830 10828 10826 10824 10821 10819 10816 10814 10812 10810 10809 10805 10802 10800 10805 10804 10804 10806 10810 10813 10812 10814 10819 10821 10823 10826 10849 10865 10864 10862 10865 10853 10850 10875 10884 10891 10898 10902 10908 10917 10925
10833 10830 10827 10825 10823 10820 10818 10816 10814 10812 10808 10804 10801 10799 10797 10793 10791 10787 10788 10787 10785 10787 10788 10791 10790 10794 10799 10797 10805 10811 10826 10841 10832 10840 10845 10827 10838 10863 10875 10883 10887 10893 10894 10894 10912
10828 10825 10822 10818 10815 10812 10810 10807 10805 10800 10797 10794 10792 10789 10787 10784 10781 10774 10778 10773 10773 10771 10773 10773 10774 10777 10777 10775 10780 10788 10807 10806 10813 10814 10814 10812 10825 10848 10860 10871 10875 10870 10867 10877 10901
10823 10819 10815 10811 10808 10804 10800 10796 10793 10790 10787 10785 10781 10778 10776 10772 10770 10763 10764 10764 10762 10761 10759 10759 10758 10759 10759 10762 10760 10771 10778 10784 10792 10789 10787 10804 10805 10826 10836 10852 10848 10844 10856 10865 10883
10812 10809 10805 10802 10798 10793 10789 10786 10783 10780 10778 10775 10771 10768 10764 10760 10755 10756 10749 10751 10750 10749 10746 10745 10746 10742 10744 10743 10745 10753 10754 10760 10766 10766 10770 10780 10789 10798 10815 10821 10828 10831 10836 10852 10858
10802 10797 10793 10789 10785 10781 10777 10773 10770 10766 10763 10760 10757 10755 10752 10742 10746 10744 10738 10734 10735 10734 10732 10731 10730 10728 10731 10728 10729 10730 10736 10742 10749 10748 10748 10756 10772 10773 10791 10797 10806 10812 10816 10831 10844
10794 10789 10784 10779 10774 10769 10763 10758 10756 10750 10746 10744 10742 10739 10738 10721 10731 10725 10722 10719 10720 10716 10716 10716 10714 10717 10715 10715 10712 10715 10722 10725 10729 10728 10728 10731 10753 10761 10759 10770 10782 10790 10794 10813 10826
10783 10776 10770 10764 10759 10755 10748 10742 10738 10734 10730 10727 10725 10723 10726 10703 10713 10710 10707 10705 10701 10701 10700 10699 10699 10702 10701 10699 10702 10701 10704 10709 10708 10707 10711 10706 10743 10740 10737 10748 10758 10771 10783 10795 10801
10770 10764 10757 10750 10745 10740 10733 10726 10721 10717 10713 10711 10707 10704 10707 10692 10688 10686 10687 10688 10685 10684 10683 10683 10684 10684 10684 10688 10690 10689 10687 10689 10688 10689 10691 10695 10718 10715 10717 10728 10742 10753 10763 10772 10779
10757 10751 10744 10737 10729 10724 10716 10707 10702 10700 10695 10689 10686 10685 10680 10676 10670 10665 10663 10664 10664 10663 10663 10665 10663 10665 10673 10674 10673 10667 10676 10677 10678 10673 10677 10684 10697 10697 10698 10712 10725 10736 10747 10753 10758
10744 10736 10728 10720 10711 10705 10700 10689 10681 10680 10677 10671 10666 10664 10655 10647 10650 10651 10639 10641 10643 10644 10646 10640 10644 10657 10653 10649 10653 10659 10663 10665 10662 10658 10661 10671 10676 10683 10683 10696 10709 10721 10727 10736 10740
10726 10718 10709 10700 10691 10681 10674 10665 10659 10652 10662 10653 10648 10643 10632 10609 10632 10630 10623 10617 10617 10623 10621 10623 10638 10634 10627 10634 10641 10645 10649 10651 10648 10646 10649 10655 10662 10669 10668 10679 10692 10703 10712 10720 10725
10708 10698 10688 10677 10667 10656 10644 10639 10630 10621 10624 10639 10625 10621 10600 10586 10600 10594 10600 10593 10593 10596 10602 10608 10616 10608 10614 10622 10627 10631 10634 10635 10636 10636 10638 10641 10650 10657 10656 10666 10675 10689 10700 10703 10711
10688 10677 10666 10660 10641 10631 10617 10611 10597 10586 10587 10612 10591 10587 10572 10568 10577 10557 10561 10570 10569 10576 10576 10586 10589 10593 10601 10608 10611 10616 10616 10617 10621 10625 10628 10630 10640 10642 10643 10650 10660 10672 10685 10687 10692
10665 10652 10643 10628 10624 10596 10591 10575 10562 10558 10550 10567 10545 10540 10538 10539 10533 10534 10521 10534 10544 10543 10545 10574 10568 10574 10583 10593 10594 10602 10599 10603 10608 10614 10619 10621 10625 10631 10631 10639 10650 10653 10666 10673 10675
10640 10624 10614 10599 10580 10577 10558 10541 10527 10516 10509 10513 10505 10483 10483 10496 10493 10491 10493 10500 10515 10510 10527 10540 10547 10558 10571 10573 10579 10581 10585 10590 10595 10603 10610 10607 10612 10618 10620 10626 10635 10636 10647 10663 10667
10615 10595 10578 10568 10554 10532 10520 10498 10484 10477 10457 10467 10465 10448 10439 10455 10447 10451 10466 10467 10483 10487 10510 10517 10529 10538 10547 10555 10559 10565 10571 10578 10585 10592 10597 10593 10599 10609 10601 10616 10622 10624 10632 10655 10661
10587 10567 10548 10531 10506 10489 10475 10460 10447 10432 10422 10419 10409 10414 10408 10414 10423 10419 10436 10443 10458 10469 10478 10496 10509 10524 10531 10540 10545 10553 10557 10565 10570 10577 10577 10578 10596 10590 10591 10605 10603 10610 10629 10641 10644
10559 10533 10512 10490 10465 10445 10432 10417 10407 10393 10388 10385 10384 10376 10381 10387 10394 10401 10411 10423 10434 10446 10462 10475 10496 10501 10510 10521 10528 10538 10547 10547 10552 10562 10569 10575 10581 10572 10585 10593 10598 10608 10619 10621 10628
10526 10500 10476 10450 10428 10411 10394 10380 10375 10368 10363 10359 10356 10357 10360 10366 10372 10382 10393 10405 10419 10432 10443 10460 10470 10483 10496 10501 10511 10522 10528 10533 10543 10553 10560 10564 10565 10564 10579 10583 10590 10597 10603 10605 10615
10483 10459 10438 10411 10392 10379 10367 10355 10346 10342 10341 10339 10337 10337 10342 10348 10358 10366 10386 10395 10408 10421 10437 10445 10458 10471 10474 10490 10502 10507 10516 10522 10528 10541 10547 10549 10555 10558 10568 10574 10574 10581 10588 10595 10599
10448 10424 10403 10383 10363 10351 10344 10336 10327 10321 10321 10322 10320 10323 10330 10337 10352 10358 10380 10389 10400 10416 10426 10436 10455 10457 10472 10479 10484 10491 10503 10511 10518 10527 10532 10539 10545 10548 10557 10564 10566 10570 10574 10579 10585
10420 10390 10376 10355 10342 10332 10325 10318 10313 10307 10306 10306 10308 10313 10320 10328 10336 10347 10368 10383 10395 10409 10420 10431 10445 10448 10460 10465 10478 10488 10494 10504 10506 10515 10525 10532 10537 10540 10548 10552 10554 10561 10563 10570 10572
10388 10368 10350 10334 10322 10315 10309 10306 10302 10298 10296 10296 10300 10304 10311 10322 10332 10343 10361 10377 10391 10402 10415 10428 10437 10447 10456 10464 10466 10473 10482 10491 10500 10509 10517 10521 10526 10531 10537 10543 10546 10550 10552 10559 10557
10359 10342 10330 10317 10308 10300 10296 10292 10291 10289 10288 10289 10292 10296 10303 10315 10327 10338 10354 10370 10382 10396 10410 10423 10431 10440 10448 10455 10462 10468 10476 10484 10493 10500 10508 10509 10519 10518 10529 10535 10537 10541 10543 10549 10550
10340 10324 10311 10302 10294 10289 10286 10283 10282 10282 10281 10283 10286 10291 10300 10311 10325 10339 10354 10366 10376 10391 10405 10415 10425 10434 10441 10448 10456 10464 10472 10479 10486 10495 10501 10504 10509 10516 10524 10523 10525 10530 10533 10539 10547
10314 10307 10295 10289 10283 10279 10277 10274 10274 10274 10275 10279 10284 10289 10296 10308 10325 10340 10349 10358 10371 10384 10398 10409 10420 10428 10437 10446 10452 10458 10465 10472 10480 10488 10492 10495 10499 10505 10513 10511 10517 10525 10530 10534 10535